METEOR 2-11 DEB, 40318

Orbit data source: Space-Track

METEOR 2-11 DEB, 40318 is space debris in LEO originally from a launch on Thu, 05 Jul 1984 UTC launched from the Plesetsk Missile And Space Complex (PKMTR). Debris objects in space refer to the collection of defunct objects orbiting the Earth. Examples of debris include non-operational satellites, rocket bodies, and fragments generated from explosions, collisions, or faulty payload assembly.

Loading next visibility...
Identifier
40318, 1984-072D
Orbit
LEO
Last TLE update
1 day ago
Origin
Manufacturer
Unknown
Mission
Spacecraft
Bus & Motor
Unknown
Mass
Unknown
Launch date (UTC)
1984-07-05 (41 years ago)
Launch vehicle
Unknown
Launch site
Plesetsk Missile And Space Complex (PKMTR)
Object type
Payload
Rocket body
Debris
Shape & HBR
Unknown
Radar Cross Section
Small (<0.1 m²)

Expand to show TLE details & history

TLE from 1 day ago
0 METEOR 2-11 DEB
1 40318U 84072D   25127.85462529  .00002002  00000-0  14809-2 0  9993
2 40318  82.5323 348.4711 0024220  86.8242 289.0865 13.94715849528698
Epoch: 2025-05-07T20:30Z
Definitive object data (Epoch: 2025-05-07T20:30:39.625Z)
Latitude
15.49001°
Longitude
176.94341°
Altitude
908.645 km
Speed
7.402 km/s
True Right ascension
23h 22m 10s
True Declination
15° 24' 13"
Sunlit
Object was in daylight at TLE epoch
Visualization TLE readout
Latitude
36.22111°
Longitude
179.24562°
Altitude
904.832 km
Speed
7.409 km/s
Apparent Right ascension
00h 24m 17s
Apparent Declination
1° 09' 46"
Sunlit
Object is in daylight
Visualization observer readout
Local Sidereal Time
13:28:04
Azimuth
23.479° NE
Elevation
-46.41°
Doppler factor
1
Orbital elements
Apogee altitude
926.939 km
Perigee altitude
891.639 km
Semi-major axis
7,287.426 km
Eccentricity
0.002422
Inclination
82.5323°
RAAN
348.4711°
Arg. of periapsis
86.8242°
True anomaly
288.82396°
Mean anomaly
289.0865°
Eccentric anomaly
288.95525°
Mean motion
3.48885 °/min
BSTAR
0.0014809
Orbital period
103.19 mins
Loading maneuver chart data...
Loading SW <> Apogee altitude chart data...
Loading historical data...
Loading historical data...
Loading historical data...
Loading historical data...
Loading historical data...
Loading historical data...
Loading historical data...

METEOR 2-11 DEB Visibility forecast

Observer location: undefined°, undefined°

Span
Click to sort rows by Start time (UTC) header in descending order
Start Az.
Max El. time (UTC)
Max El. Az.
Max El.
End time (UTC)
End Az.
6 mins2025-05-09 13:54:25.858Z112.217° ESE2025-05-09 13:57:25.858Z78.36° E15.485°2025-05-09 14:00:25.858Z46.924° ENE
9 mins2025-05-09 15:36:25.858Z201.939° SSW2025-05-09 15:40:25.858Z276.027° WNW42.07°2025-05-09 15:45:25.858Z359.705° N
10 mins2025-05-10 02:24:25.858Z353.109° N2025-05-10 02:28:25.858Z10.926° NNE44.933°2025-05-10 02:34:25.858Z173.678° S
|